Regional Weather Roundup
Issued by NWS

Home | Current Version | Previous Version | Text Only | Print | Product List | Glossary On
Versions: 1 2 3 4 5 6 7 8 9 10 11 12 13 14 15 16 17 18 19 20 21 22 23 24 25 26 27 28 29 30 31 32 33 34 35 36 37 38 39 40 41 42 43 44 45 46 47 48 49 50
000
ASUS46 KPQR 201410
RWROR

OREGON REGIONAL WEATHER ROUNDUP
NATIONAL WEATHER SERVICE PORTLAND OR
700 AM PDT WED AUG 20 2014

NOTE: "FAIR" INDICATES FEW OR NO CLOUDS BELOW 12,000 FEET WITH
NO SIGNIFICANT WEATHER AND/OR OBSTRUCTIONS TO VISIBILITY.

ORZ001>013-201500-
NORTHWEST OREGON


CITY           SKY/WX    TMP DP  RH WIND       PRES   REMARKS
ASTORIA        MOCLDY    54  54 100 SE3       29.95S
NEWPORT        CLOUDY    57  57 100 CALM      29.99R
PORTLAND       CLOUDY    61  53  75 N5        29.96R
VANCOUVER WA   CLOUDY    61  51  70 VRB3      29.96R
SCAPPOOSE      CLOUDY    59  53  80 CALM      29.96R
HILLSBORO      CLOUDY    61  54  77 CALM      29.96R
AURORA         CLOUDY    60  53  77 VRB3      29.97R
MCMINNVILLE    CLOUDY    61  55  81 SW3       29.97R
SALEM          CLOUDY    63  51  65 NW9       29.95R
CORVALLIS      CLOUDY    63  55  77 NW6       29.97R
EUGENE         CLOUDY    62  57  83 NE3       29.95R
$$

ORZ021-028-201500-
SOUTHWEST OREGON


CITY           SKY/WX    TMP DP  RH WIND       PRES   REMARKS
NORTH BEND     CLOUDY    59  59 100 W3        29.96S
BROOKINGS      FOG       55  55 100 CALM      29.90R VSB<1/4
ROSEBURG       CLOUDY    63  57  81 CALM      29.94R
SEXTON SUMMIT  CLEAR     54  54 100 N12       29.99S
MEDFORD        CLEAR     62  55  77 NE3       29.93R
$$

ORZ009-041-201500-
COLUMBIA GORGE


CITY           SKY/WX    TMP DP  RH WIND       PRES   REMARKS
TROUTDALE      CLOUDY    62  52  69 W3        29.94R
THE DALLES     PTCLDY    65  49  56 NW9       29.86R
$$

ORZ029>031-042>050-061>064-201500-
EASTERN OREGON


CITY           SKY/WX    TMP DP  RH WIND       PRES   REMARKS
REDMOND        CLEAR     53  48  83 SE5       29.93R
BEND           SUNNY     50  46  87 CALM      29.95S
KLAMATH FALLS  CLEAR     50  47  89 S3        29.99R
LAKEVIEW       CLEAR     46  43  87 CALM      30.02R
HERMISTON      MOCLDY    65  50  58 SW13      29.80S
PENDLETON      CLOUDY    65  50  58 W21       29.83S
JOHN DAY       SUNNY     56  47  73 E8        29.92F
MEACHAM        CLOUDY    54  50  86 CALM      29.91F
LA GRANDE      MOCLDY    63  45  51 W10       29.87F
BAKER CITY     PTCLDY    56  48  74 S5        29.91R
BURNS          CLEAR     56  44  64 N6        29.94R
ROME             N/A     54  45  71 S5        29.92R
ONTARIO        MOSUNNY   66  51  58 CALM      29.84R
$$



USA.gov is the U.S. government's official web portal to all federal, state and local government web resources and services.